STARLINK-35983 (66902 NORAD) Tracking and Keplerian Element Data

This shows tracking and keplerian element data for the satellite.

Feedback or suggestion? Click here.




ElementValue
Catalog66902
NameSTARLINK-35983
Epoch Orbit363
Epoch Day354.25003472
Epoch Year2025
RAAN36.048
Inclination53.1575
Eccentricity0.0001146
Argument of Perigee94.9715
Mean Anonmoly175.0975
Mean Motion15.74243564
Decay Rate-0.00115049
L11 66902U 25283AA 25354.25003472 -.00115049 00000+0 -79011-3 0 9997
L22 66902 53.1575 36.0480 0001146 94.9715 175.0975 15.74243564 3636



Live tracking and technical data element details for STARLINK-35983 (NORAD 66902). STARLINK-35983 can be tracked NOW for your location showing map with azimuth and elevation plus other details from your city location.







IsCatalogInMostPopularTable: catalog: 66902, numindb: 20
Update: records affected: 1



GetName: 66902 STARLINK-35983

Hit Count: updated at: Wed, 15 Apr 2026 01:32:32 GMT